RH
65 65 85 89 87 78 62 47 42 48 53 64 64 68 69 69 69 45 30 32 44 52 37 48 58 73 41 22 11 8 5 5 6 6 5 6 8 9 11 13 17 19 18 20 30 44 47 41 39 40 52 54 53 49
93 97 92 83 67 63 59 60 59 64 70 74 73 75 63 60 54 42 40 36 37 35 53 46 38 55 23 15 11 7 4 5 6 6 6 7 7 8 10 14 18 20 22 21 21 32 49 52 46 42 45 53 60 57
87 81 76 74 66 68 66 69 76 79 76 75 83 72 62 51 41 39 30 35 30 41 37 37 40 48 27 11 8 5 4 5 6 6 7 7 8 8 10 11 16 24 26 27 26 29 42 61 56 46 47 53 61 68
87 95 92 91 80 84 77 86 82 78 79 77 71 65 60 47 42 32 26 36 20 24 38 48 47 42 19 8 6 4 4 5 5 6 6 8 9 8 10 11 12 20 28 32 30 28 35 36 64 65 57 70 77 86
94 93 97 95 92 87 78 84 83 78 80 83 68 59 50 48 43 26 38 37 24 33 51 43 44 29 13 7 5 4 4 5 5 6 7 8 10 10 10 13 13 15 19 26 32 34 30 38 51 80 70 63 74 94
100 100 100 93 100 100 100 91 91 89 84 76 70 61 50 44 35 23 30 31 31 40 57 43 39 24 13 6 4 4 5 5 4 5 6 8 8 8 10 16 14 16 23 26 32 41 45 42 42 49 88 89 77 72
100 100 100 100 97 93 90 88 87 90 80 80 63 51 47 39 39 29 34 25 24 38 53 35 25 18 11 6 4 4 5 5 5 5 8 8 7 8 11 16 15 16 26 34 35 40 48 44 49 45 55 88 90 81
100 100 100 100 100 99 100 95 93 100 86 68 55 44 38 35 45 46 28 31 28 45 39 32 21 16 9 6 4 4 5 5 5 6 6 7 7 9 14 17 12 16 26 31 40 57 65 53 43 46 44 48 84 94
100 100 100 100 100 100 100 100 98 87 83 67 55 46 30 38 43 50 30 29 39 46 41 52 26 9 6 6 5 5 5 6 6 6 6 7 9 14 17 12 11 14 26 29 42 61 67 62 59 51 41 40 43 83
100 100 100 100 100 100 100 86 82 79 70 72 63 40 26 42 36 37 37 29 39 48 58 39 21 8 5 5 5 6 6 6 7 7 6 9 11 10 10 9 11 13 25 36 41 42 43 43 51 56 45 25 33 39
100 100 100 100 100 98 91 90 88 73 67 71 54 38 23 26 32 40 27 40 57 65 70 32 11 6 6 5 6 7 6 6 7 7 7 8 8 9 11 13 13 15 19 19 19 21 22 23 24 27 22 20 28 31
100 100 100 100 100 100 99 97 90 71 66 60 48 22 15 28 28 36 33 47 51 75 74 44 8 6 6 5 6 7 6 6 7 7 7 7 8 9 12 13 12 12 13 14 15 15 15 16 15 15 16 15 24 27
100 100 100 100 100 100 100 99 90 71 65 57 42 31 24 34 32 29 36 60 58 71 51 20 7 7 6 6 7 8 8 8 8 8 8 9 9 9 10 11 12 13 14 13 14 14 13 11 10 10 11 13 22 25
100 100 100 100 100 99 90 86 74 65 50 45 29 27 21 26 27 40 39 48 46 44 34 7 7 7 6 7 8 8 9 10 10 11 10 10 10 10 11 12 12 13 15 16 16 15 13 11 10 11 12 14 22 26
100 100 100 100 99 89 97 81 72 56 36 37 20 19 25 29 34 42 41 38 53 49 7 7 8 7 7 8 8 9 10 11 12 12 12 12 12 12 11 13 15 17 18 18 17 15 12 12 13 14 18 21 24 46
100 100 100 100 100 91 78 56 55 41 36 26 22 22 35 34 32 34 30 46 54 10 7 7 7 7 8 8 9 11 13 14 13 14 13 13 13 14 14 15 18 19 19 19 18 16 14 13 16 20 24 26 42 67
100 100 100 92 86 80 61 57 46 38 29 14 19 31 48 34 41 37 32 28 10 7 7 7 7 7 8 10 11 13 15 15 15 16 15 14 14 15 15 16 18 21 23 23 22 20 20 22 24 27 30 45 75 88
100 100 100 100 98 86 62 52 42 45 46 38 54 51 39 46 36 37 30 7 6 7 7 7 7 8 9 11 15 16 17 15 15 17 18 18 18 18 17 20 22 24 26 28 26 24 24 25 29 33 43 59 67 87
100 100 100 100 100 94 72 61 52 48 47 55 55 49 45 60 44 65 13 5 7 7 7 6 7 9 10 13 16 20 18 17 17 19 22 24 24 22 21 23 26 28 29 30 34 34 31 30 30 32 37 42 52 67
100 100 100 100 100 89 68 67 53 53 50 44 50 48 50 56 53 12 6 6 7 7 6 6 8 9 12 15 19 22 20 18 20 21 25 30 32 26 22 24 25 27 38 42 42 44 50 48 41 39 38 38 40 46
100 90 83 80 82 66 53 51 59 63 61 58 60 62 54 25 6 5 5 6 6 5 6 6 9 11 15 20 24 26 24 19 21 23 24 31 42 36 31 30 27 28 30 32 36 46 52 56 61 65 62 56 56 58
93 96 85 79 68 43 27 39 42 42 59 55 56 45 13 5 5 5 5 6 5 5 6 7 10 13 14 17 20 31 38 31 23 25 25 26 38 45 42 37 36 35 34 34 34 35 38 43 47 50 54 58 62 65
51 56 55 45 27 21 41 44 41 47 47 20 8 6 5 4 5 5 5 5 4 5 6 8 10 12 13 16 19 26 31 28 27 33 32 31 33 34 42 44 44 48 52 50 51 55 57 61 66 70 70 69 69 69
23 19 16 12 18 29 27 23 11 8 7 6 5 4 4 4 5 4 4 4 5 5 8 11 12 13 15 16 17 20 24 26 28 36 41 40 44 42 38 42 48 52 54 60 65 67 69 74 78 79 77 75 74 73
5 6 7 10 10 8 7 6 6 5 5 5 4 4 4 4 4 4 4 5 5 6 8 10 13 15 15 16 17 18 20 24 27 31 38 45 49 50 49 47 50 56 58 59 63 66 67 66 70 74 75 73 71 71
6 7 7 6 6 6 5 5 5 5 5 4 4 4 4 4 4 4 5 5 6 7 8 10 13 15 16 16 17 19 21 25 29 30 34 39 46 48 54 55 57 61 57 61 66 65 66 65 68 74 78 82 85 87
6 6 6 6 6 5 5 5 5 5 4 4 4 4 4 4 4 5 6 6 6 7 8 10 12 14 15 15 15 16 19 22 25 28 32 35 39 45 52 54 55 53 50 52 56 61 65 70 73 75 82 86 85 83
6 6 6 6 6 5 5 5 4 4 4 4 4 4 5 6 5 6 6 6 6 7 9 11 12 13 13 14 15 16 17 19 21 22 24 25 29 34 36 38 43 48 48 51 54 57 59 61 63 65 68 70 73 69
6 6 6 5 5 5 5 5 5 4 4 5 6 7 7 6 5 6 6 5 5 6 8 10 11 12 12 13 14 14 15 16 18 19 21 22 21 21 23 27 31 35 37 38 40 42 45 47 49 52 50 46 43 42
5 5 5 6 6 6 6 6 6 8 8 7 6 6 5 4 4 4 4 4 4 5 6 7 8 10 10 11 12 12 13 14 14 15 16 17 18 20 22 22 22 25 30 34 36 39 41 42 42 40 37 34 33 32
6 6 7 7 8 8 8 7 6 6 5 4 4 4 4 3 3 3 3 4 4 5 6 6 7 8 8 8 9 10 10 12 14 15 16 16 17 18 21 23 25 27 28 29 31 34 37 37 34 32 29 27 26 26
7 8 7 7 7 6 5 4 4 3 3 3 4 4 4 3 4 3 4 5 6 6 7 8 8 8 9 9 10 10 11 11 13 14 16 18 18 19 20 23 25 27 28 26 25 25 23 22 22 21 20 21 22 23
7 6 6 5 4 3 3 3 4 4 4 4 4 4 4 4 4 4 4 4 5 6 7 7 6 6 6 7 7 7 8 8 9 11 13 14 15 17 18 19 20 21 22 21 20 20 19 19 19 19 21 21 20 18
Wind_Speed
67 67 68 73 75 77 79 82 82 84 86 88 92 93 96 96 99 99 99 97 99 104 109 105 93 106 93 88 76 64 49 38 31 30 28 23 21 22 23 21 22 22 21 21 21 19 19 22 27 30 31 32 32 35
69 71 74 77 80 79 81 83 85 87 89 92 95 98 99 100 101 101 102 100 101 105 112 109 91 96 85 81 70 57 46 35 29 29 26 25 22 20 21 24 23 23 23 22 21 19 19 18 22 25 29 32 32 32
75 76 77 81 83 82 84 86 87 89 91 95 97 99 101 103 102 102 101 104 106 103 102 110 100 99 84 76 64 50 40 29 27 27 24 24 23 23 24 23 24 25 23 23 22 22 20 20 20 22 24 29 32 31
76 78 80 83 84 86 88 88 90 92 96 97 100 101 105 105 106 105 102 107 104 107 100 103 92 94 83 70 56 45 35 30 29 29 25 24 26 24 25 25 25 24 25 24 25 25 24 23 19 21 23 24 29 31
81 81 83 86 86 91 91 93 95 97 99 101 105 106 106 106 108 105 107 111 107 106 100 99 96 89 79 64 51 40 33 31 31 28 26 25 27 27 25 26 28 25 23 26 25 27 26 25 24 24 24 25 26 30
81 83 89 88 89 92 93 96 97 100 104 106 107 108 108 109 110 108 104 111 109 104 103 98 95 89 80 58 47 39 33 34 32 27 27 27 30 26 24 28 29 27 25 25 28 28 29 29 28 27 27 27 28 30
87 87 91 94 94 95 98 100 103 105 107 108 112 114 112 112 112 109 107 108 102 107 103 92 90 87 75 54 43 37 33 33 31 25 25 31 28 25 27 32 35 27 27 28 32 31 32 31 32 32 32 32 31 30
90 90 90 95 100 99 100 105 108 109 111 112 115 117 117 116 114 113 112 115 105 102 99 95 90 83 67 48 40 36 34 31 29 26 26 29 24 24 28 40 36 23 29 30 31 34 35 36 36 35 36 37 36 34
94 93 94 101 103 103 105 110 112 112 113 117 117 120 119 121 119 117 117 115 109 111 99 105 88 79 61 45 37 34 32 29 28 27 25 24 23 23 39 38 33 26 27 31 32 37 41 41 39 40 40 41 41 39
98 98 102 105 106 109 111 113 113 115 118 118 120 123 124 120 119 118 119 109 112 107 113 99 87 73 56 43 35 31 31 27 26 27 25 26 32 37 40 33 30 27 27 31 35 40 42 43 43 47 48 40 41 42
106 106 106 108 110 112 115 114 116 119 119 120 123 126 123 120 121 125 124 117 123 111 108 90 77 62 51 40 34 30 28 25 25 27 28 32 34 31 29 30 32 31 34 37 36 37 40 43 45 47 47 38 41 43
111 110 110 110 112 114 116 116 120 120 122 125 127 129 112 124 126 125 126 121 103 110 104 90 65 53 43 36 33 30 26 24 25 27 28 28 27 29 31 32 34 33 33 34 35 35 35 39 40 41 42 36 39 41
113 113 113 113 115 117 117 120 123 125 128 130 129 130 130 126 125 118 122 105 97 107 88 71 55 47 37 33 30 28 25 23 24 25 26 28 29 30 30 30 32 32 33 33 33 34 34 34 33 32 33 35 39 38
115 115 114 118 122 122 124 126 130 131 132 134 131 126 128 126 120 121 106 102 91 90 81 53 47 42 33 29 28 26 24 23 24 26 28 28 28 28 28 28 29 29 27 27 29 30 30 29 29 29 29 33 36 36
117 117 121 126 124 126 128 131 132 132 134 134 132 127 123 124 119 122 100 91 90 82 56 48 44 38 31 27 27 25 22 22 25 26 25 25 26 27 25 24 25 24 25 26 27 25 24 25 25 26 28 31 34 35
123 123 126 127 126 129 134 134 134 133 134 136 133 121 123 119 112 102 84 78 91 64 49 42 40 34 29 26 25 22 22 23 26 25 24 26 25 23 22 23 23 23 21 21 22 20 19 20 21 24 27 30 32 34
125 126 130 131 130 131 133 136 136 136 136 121 111 122 124 113 108 99 85 84 64 54 47 39 37 32 28 26 24 23 24 25 24 23 24 26 25 23 22 22 21 20 19 20 20 20 19 19 21 23 27 31 33 35
129 126 129 133 134 137 137 137 136 137 132 129 132 131 127 110 103 101 97 63 58 51 44 37 36 31 27 26 24 25 26 27 25 24 23 23 22 22 22 20 19 19 17 18 20 20 21 23 24 27 30 32 34 37
129 128 133 134 137 137 139 141 140 135 132 133 132 131 110 114 100 110 85 60 53 48 40 35 34 32 30 27 26 26 28 28 26 26 23 22 22 23 23 22 19 18 19 19 19 20 20 22 24 27 30 32 35 37
141 137 141 144 145 147 149 148 140 135 134 127 130 112 116 115 100 77 67 55 48 44 39 36 35 34 30 27 27 27 31 31 28 27 24 21 23 25 24 22 21 22 21 20 20 20 19 21 23 25 26 28 31 34
144 145 144 146 143 144 146 141 142 136 132 122 118 120 109 95 72 63 58 51 45 40 38 36 35 35 29 27 27 30 32 33 28 28 28 25 26 27 25 24 23 22 23 23 21 20 20 21 22 23 25 26 27 29
142 143 142 140 140 130 120 127 125 121 120 120 118 105 84 72 63 56 49 46 43 38 39 38 38 39 36 33 33 34 35 35 31 30 32 31 28 26 26 26 25 24 24 24 22 22 23 23 23 24 25 26 27 28
128 128 130 125 116 110 119 115 113 112 106 93 81 73 67 60 53 48 44 42 41 37 38 38 39 40 39 35 34 36 38 36 32 32 33 33 31 30 29 28 27 26 25 25 24 25 25 24 24 25 26 28 28 29
108 102 100 97 99 104 104 97 89 82 77 70 64 62 58 52 49 46 42 40 38 36 35 36 38 39 38 37 37 38 40 38 35 34 35 34 33 32 31 29 29 28 28 27 27 28 27 26 26 27 27 28 28 28
81 75 79 83 83 80 78 74 69 65 62 59 56 53 50 48 47 44 39 36 35 36 38 38 37 38 38 37 38 39 40 41 39 38 38 37 36 35 34 33 31 30 30 30 30 29 29 29 29 28 29 29 29 30
72 69 67 66 65 63 62 59 58 56 55 52 49 47 47 46 44 39 36 35 36 37 36 36 37 39 40 40 40 40 42 43 44 43 41 40 39 37 36 37 35 34 34 32 32 32 31 32 31 32 32 33 35 37
57 56 56 56 55 54 53 52 52 50 48 46 45 45 44 43 40 36 35 35 35 36 36 36 38 39 40 41 41 42 43 44 45 46 45 44 43 42 41 40 39 39 37 36 35 35 35 36 37 37 37 38 40 43
50 50 49 48 49 49 48 47 47 46 45 44 43 42 41 38 34 32 33 35 35 35 36 36 36 38 41 41 43 44 44 45 45 46 46 45 44 45 44 43 42 42 40 38 38 38 38 38 38 39 41 43 44 45
46 46 46 45 44 44 43 44 44 45 43 42 41 40 39 37 33 32 35 37 37 37 36 36 37 38 39 41 43 44 45 45 45 45 45 44 44 43 43 43 44 43 42 41 41 40 40 41 42 42 44 45 45 46
42 43 43 44 44 43 41 41 41 41 40 40 39 37 36 35 35 35 38 38 37 37 37 38 38 39 40 42 44 43 44 45 43 41 40 41 40 40 42 41 39 40 41 41 41 42 42 43 44 45 46 46 46 46
41 41 41 40 40 40 40 39 38 37 36 34 34 33 33 34 34 33 33 33 34 35 36 37 37 38 41 40 40 40 39 38 38 37 37 36 35 34 36 38 39 39 39 39 41 42 44 44 44 45 45 43 42 40
40 39 38 36 34 33 32 31 31 32 33 32 32 32 31 28 27 24 22 25 30 34 35 35 35 35 33 34 33 34 35 34 35 35 35 35 35 34 35 36 37 38 40 41 41 41 41 41 41 39 36 34 36 39
33 31 30 29 29 28 29 29 29 30 30 29 29 26 25 24 23 22 23 26 28 32 35 36 37 37 36 37 38 38 38 36 34 34 34 35 35 35 36 36 37 39 40 40 38 38 38 36 34 33 33 36 39 41
Wind_Direction
269 273 277 281 284 287 292 295 300 304 309 311 313 315 318 321 323 325 331 336 338 338 337 339 342 341 335 330 325 322 309 293 283 281 274 263 252 254 258 255 255 260 260 258 252 252 252 247 243 240 237 238 239 238
269 272 276 281 284 289 293 297 300 305 308 309 311 313 316 319 320 325 330 334 336 338 339 333 336 332 329 329 324 321 311 297 286 280 269 260 253 255 252 250 251 256 259 259 259 252 252 252 247 242 239 235 236 235
271 275 278 282 286 290 293 296 301 303 305 307 309 311 314 317 319 325 328 331 335 335 338 333 333 331 333 326 321 319 307 294 284 272 264 260 255 251 253 246 239 247 254 255 256 255 251 249 251 247 242 239 235 237
273 277 281 284 287 290 293 296 298 300 302 305 307 311 312 316 320 323 328 328 333 335 337 329 331 331 330 325 317 314 302 287 279 267 260 251 253 253 255 257 248 240 245 251 250 253 253 252 252 253 244 240 238 237
274 277 279 281 288 291 293 295 298 300 302 304 306 309 312 315 318 323 326 326 332 337 332 331 332 329 329 323 314 310 302 285 275 262 251 246 247 250 253 257 255 250 250 250 250 251 253 254 249 248 251 245 240 240
273 277 278 283 286 287 290 292 295 298 299 302 305 307 310 313 315 321 326 327 331 338 334 329 327 327 325 322 313 307 301 283 272 262 253 247 248 252 252 253 254 252 250 252 254 250 251 249 250 252 251 250 247 242
272 275 279 281 283 286 289 291 293 294 298 302 303 305 309 311 314 319 322 327 329 335 332 329 326 322 325 318 312 304 299 284 272 255 245 249 252 252 250 251 251 245 249 250 255 255 252 252 249 248 249 250 249 247
269 273 277 278 281 285 288 290 292 294 297 299 302 305 308 310 316 317 322 326 328 336 329 327 322 321 324 317 310 304 298 286 270 257 249 250 254 250 247 246 256 244 245 249 252 255 254 252 252 249 247 248 248 248
269 271 273 275 279 282 285 287 290 294 297 299 303 304 307 311 313 316 321 325 330 332 329 327 320 317 321 314 306 302 295 282 264 256 254 253 249 244 245 255 261 257 248 251 250 252 256 257 256 256 254 246 244 243
266 268 271 273 277 280 284 287 290 293 295 299 301 303 305 309 315 316 321 327 331 329 331 324 319 320 319 312 302 299 291 275 257 253 250 246 240 240 247 260 262 260 252 251 250 250 252 254 255 255 256 252 244 242
264 267 270 273 277 282 285 288 291 292 296 298 299 301 305 310 312 316 319 326 329 327 328 321 318 316 316 306 299 293 285 268 255 252 247 241 248 257 258 257 257 254 254 255 256 254 253 253 252 253 256 249 238 238
264 268 271 275 278 281 284 287 289 292 294 294 297 301 306 308 311 315 321 322 324 326 327 326 313 311 310 301 297 292 284 267 254 253 253 252 250 248 247 251 255 256 255 257 259 258 255 253 253 251 251 243 235 234
265 269 272 275 278 280 282 285 287 289 291 293 296 299 303 308 311 318 319 323 324 323 323 316 311 308 305 296 292 286 279 263 259 258 257 254 252 253 253 251 255 256 256 257 257 257 258 258 256 250 242 232 229 228
265 268 273 275 276 279 281 284 286 288 291 293 297 301 306 309 314 317 324 320 319 321 319 311 310 303 297 290 287 279 270 261 256 253 254 255 254 257 256 255 256 258 260 261 261 260 257 255 250 243 234 228 226 223
266 268 271 273 276 279 282 284 285 288 291 295 299 303 307 311 317 319 319 317 321 325 308 310 305 296 289 282 278 273 263 256 254 255 254 251 249 249 251 255 253 256 254 254 256 254 253 250 240 233 228 224 222 222
266 269 270 273 276 279 281 285 286 288 291 295 300 306 306 312 317 313 315 320 323 312 309 308 297 288 279 273 270 264 254 250 249 250 250 248 247 245 245 247 246 249 248 255 253 248 246 243 234 230 226 223 225 227
266 269 271 274 276 279 283 284 286 289 290 297 303 306 308 315 313 315 317 318 311 310 307 302 286 278 269 266 263 255 247 245 245 246 245 245 246 242 243 245 244 248 249 250 250 245 241 235 232 229 229 229 229 230
268 271 272 275 276 278 282 285 288 291 294 298 302 304 307 314 313 314 317 308 310 306 301 292 278 271 263 257 254 249 246 244 240 240 242 242 242 241 241 241 244 242 246 248 245 243 241 239 236 232 230 231 235 238
268 269 271 274 276 278 280 283 287 290 294 296 298 302 306 309 312 315 307 304 303 297 291 279 268 261 256 252 247 244 244 242 239 238 241 241 237 239 242 240 241 243 243 243 242 242 241 241 243 244 243 243 243 244
264 266 268 270 274 276 279 282 287 289 292 295 300 304 305 308 305 304 300 298 294 288 280 270 262 259 254 245 240 241 244 243 239 239 238 238 240 241 242 241 242 243 244 244 241 239 239 240 241 242 244 246 248 250
264 266 268 272 275 276 279 282 286 291 292 295 300 300 304 300 298 298 294 291 285 278 270 262 256 253 242 234 236 243 247 247 240 240 239 233 234 239 243 243 243 242 242 245 246 246 246 246 246 247 248 248 250 251
264 267 269 273 273 277 281 283 287 288 294 294 297 295 293 292 293 290 288 282 277 270 260 254 248 245 239 228 226 231 238 243 242 240 243 240 233 235 238 238 239 242 243 244 244 244 246 246 248 251 253 254 255 256
265 267 271 274 276 280 281 284 288 291 291 289 287 286 288 288 286 284 280 275 271 265 258 254 252 248 243 233 229 233 237 239 238 240 244 247 244 239 235 236 238 239 241 241 241 244 245 247 249 251 254 256 257 259
265 266 271 279 282 282 285 285 282 282 282 282 283 283 282 281 279 277 274 268 263 256 247 247 248 247 244 241 234 233 238 239 238 239 242 246 247 248 244 238 237 241 242 242 243 246 249 250 250 252 255 257 259 263
275 279 282 282 281 280 277 277 277 277 277 278 277 277 277 276 275 273 268 261 255 250 245 241 241 243 243 242 241 240 241 242 239 238 241 243 245 248 250 248 245 243 246 245 246 248 250 253 255 257 260 264 268 271
276 275 274 273 272 273 273 273 274 275 275 274 274 273 272 271 271 270 261 253 247 245 244 240 238 239 240 241 240 240 240 242 244 242 241 242 245 246 249 250 250 249 250 251 254 257 260 262 265 267 269 271 274 276
267 266 267 267 269 269 269 270 269 269 270 269 268 268 267 269 268 262 253 246 243 243 243 242 239 238 240 243 244 241 240 241 242 244 243 243 243 243 245 248 252 254 255 257 258 261 264 267 268 270 271 272 274 277
263 264 264 265 266 266 266 266 266 266 266 265 265 265 265 264 261 254 250 247 245 245 244 244 244 242 241 242 243 243 244 243 244 244 245 246 246 247 248 249 250 253 256 258 260 263 265 266 266 267 270 273 275 277
262 264 265 265 264 264 262 262 262 262 263 264 264 262 261 259 254 248 245 246 246 245 245 244 244 245 244 244 244 243 243 244 245 245 246 247 249 251 252 253 255 256 259 262 264 266 268 270 271 273 274 275 277 280
259 260 260 260 261 261 262 261 261 263 262 261 262 262 262 259 254 249 247 247 249 250 249 248 247 246 247 243 243 243 244 246 248 248 248 249 251 252 254 257 257 259 261 263 265 267 269 271 273 275 277 279 281 283
255 257 258 258 258 259 260 261 264 265 267 266 263 261 259 259 257 254 253 255 257 258 256 253 251 247 246 246 245 246 247 248 249 252 254 253 254 254 254 257 260 262 263 263 264 266 268 270 272 274 277 281 284 285
254 255 256 258 259 260 260 259 258 258 258 258 258 258 258 259 261 262 256 250 251 252 253 255 257 256 254 255 253 252 251 246 244 245 246 249 250 249 249 252 255 259 261 263 263 265 267 270 274 280 282 284 284 283
254 256 256 256 254 253 252 253 254 255 256 258 259 256 250 246 248 252 255 252 250 248 247 247 248 248 243 239 239 238 238 239 236 237 239 241 242 243 244 245 248 251 255 259 263 268 272 277 282 283 284 283 283 285